Tracking 22124 objects as of 24-Jan-2021
HD Live streaming from Space Station
objects crossing your sky now

MEZNSAT

Track MEZNSAT now!
10-day predictions
MEZNSAT is classified as:


NORAD ID: 46489
Int'l Code: 2020-068D
Perigee: 550.1 km
Apogee: 575.0 km
Inclination: 97.7 °
Period: 95.8 minutes
Semi major axis: 6933 km
RCS: Unknown
Launch date: September 28, 2020
Source: (UNK)
Launch site: PLESETSK MISSILE AND SPACE COMPLEX (PKMTR)

Uplink (MHz):
Downlink (MHz): 436.600
Beacon (MHz):
Mode: 1200bps BPSK
Call sign: A68MZ
Status: Active

aabbcc
Your satellite tracking list
Your tracking list is empty




NASA's NSSDC Master Catalog

Two Line Element Set (TLE):
1 46489U 20068D   21023.88321843  .00000265  00000-0  23819-4 0  9992
2 46489  97.6823 322.4251 0017971 197.8192 234.2892 15.03729110 17635
Source of the keplerian elements: AFSPC